| time (UTC) | temp C | wind direction | speed KPH | gust KPH | rain 1hr cm | rain 24hr cm | rain mn cm | humidity % | barometer mb |
| 20260505183607 | 11 | 310 | 11.3 | 17.7 | 0.00 | 0.00 | 0.00 | 72 | 1006.1 |
| 20260505182709 | 11 | 327 | 12.9 | 17.7 | 0.00 | 0.00 | 0.00 | 72 | 1006.1 |
| 20260505181807 | 11 | 318 | 14.5 | 22.5 | 0.00 | 0.00 | 0.00 | 72 | 1006.1 |
| 20260505180905 | 11 | 316 | 12.9 | 14.5 | 0.00 | 0.00 | 0.00 | 72 | 1006.1 |
| 20260505180007 | 11 | 308 | 14.5 | 17.7 | 0.00 | 0.00 | 0.00 | 71 | 1006.3 |
| 20260505175407 | 11 | 310 | 16.1 | 17.7 | 0.00 | 0.00 | 0.00 | 68 | 1006.0 |
| 20260505174508 | 11 | 313 | 14.5 | 17.7 | 0.00 | 0.00 | 0.00 | 68 | 1006.0 |
| 20260505173605 | 12 | 339 | 14.5 | 17.7 | 0.00 | 0.00 | 0.00 | 68 | 1005.9 |
| 20260505172705 | 12 | 322 | 14.5 | 20.9 | 0.00 | 0.00 | 0.00 | 68 | 1005.8 |
| 20260505172020 | 11 | 336 | 16.1 | 20.9 | 0.00 | 0.00 | 0.00 | 68 | 1006.2 |
| 20260505170905 | 11 | 321 | 16.1 | 24.1 | 0.00 | 0.00 | 0.00 | 68 | 1006.1 |
| 20260505170009 | 12 | 323 | 14.5 | 24.1 | 0.00 | 0.00 | 0.00 | 65 | 1006.1 |
| 20260505165406 | 12 | 323 | 16.1 | 17.7 | 0.00 | 0.00 | 0.00 | 66 | 1006.1 |
| 20260505164506 | 12 | 329 | 16.1 | 22.5 | 0.00 | 0.00 | 0.00 | 63 | 1006.2 |
| 20260505163608 | 12 | 327 | 12.9 | 17.7 | 0.00 | 0.00 | 0.00 | 65 | 1006.0 |
| 20260505162707 | 11 | 311 | 11.3 | 17.7 | 0.00 | 0.00 | 0.00 | 63 | 1006.0 |
| 20260505161808 | 12 | 314 | 14.5 | 17.7 | 0.00 | 0.00 | 0.00 | 67 | 1006.1 |
| 20260505161117 | 11 | 330 | 14.5 | 22.5 | 0.00 | 0.00 | 0.00 | 71 | 1006.0 |
| 20260505152919 | 12 | 340 | 14.5 | 17.7 | 0.00 | 0.00 | 0.00 | 69 | 1006.1 |
| 20260505151807 | 12 | 306 | 14.5 | 17.7 | 0.00 | 0.00 | 0.00 | 69 | 1006.2 |
| 20260505151118 | 12 | 318 | 16.1 | 20.9 | 0.00 | 0.00 | 0.00 | 69 | 1006.2 |
| 20260505124507 | 11 | 332 | 19.3 | 25.7 | 0.00 | 0.00 | 0.00 | 71 | 1006.3 |
| 20260505123606 | 11 | 322 | 19.3 | 24.1 | 0.00 | 0.00 | 0.00 | 72 | 1006.2 |
| 20260505122705 | 11 | 311 | 19.3 | 27.4 | 0.00 | 0.00 | 0.00 | 71 | 1006.4 |
| 20260505122018 | 12 | 305 | 19.3 | 25.7 | 0.00 | 0.00 | 0.00 | 69 | 1006.4 |
| 20260505120907 | 12 | 318 | 14.5 | 17.7 | 0.00 | 0.00 | 0.00 | 68 | 1006.3 |
| 20260505120007 | 12 | 304 | 11.3 | 17.7 | 0.00 | 0.00 | 0.00 | 65 | 1006.2 |
| 20260505115619 | 12 | 315 | 11.3 | 14.5 | 0.00 | 0.00 | 0.00 | 64 | 1006.4 |
| 20260505114506 | 12 | 322 | 12.9 | 22.5 | 0.00 | 0.00 | 0.00 | 64 | 1006.3 |
| 20260505113607 | 12 | 328 | 14.5 | 22.5 | 0.00 | 0.00 | 0.00 | 61 | 1006.5 |
| 20260505112705 | 12 | 317 | 14.5 | 22.5 | 0.00 | 0.00 | 0.00 | 66 | 1006.6 |
| 20260505111807 | 12 | 313 | 14.5 | 17.7 | 0.00 | 0.00 | 0.00 | 66 | 1006.7 |
| 20260505110907 | 11 | 333 | 14.5 | 17.7 | 0.00 | 0.00 | 0.00 | 66 | 1006.8 |
| 20260505101808 | 11 | 305 | 14.5 | 22.5 | 0.00 | 0.00 | 0.00 | 73 | 1006.6 |
| 20260505100905 | 11 | 318 | 11.3 | 17.7 | 0.00 | 0.00 | 0.00 | 71 | 1006.7 |
| 20260505100006 | 11 | 312 | 12.9 | 17.7 | 0.00 | 0.00 | 0.00 | 73 | 1006.8 |
| 20260505095405 | 11 | 321 | 12.9 | 17.7 | 0.00 | 0.00 | 0.00 | 74 | 1006.7 |
| 20260505094505 | 11 | 321 | 12.9 | 20.9 | 0.00 | 0.00 | 0.00 | 75 | 1006.8 |
| 20260505093605 | 11 | 341 | 11.3 | 17.7 | 0.00 | 0.00 | 0.00 | 75 | 1006.8 |
| 20260505092705 | 10 | 327 | 11.3 | 14.5 | 0.00 | 0.00 | 0.00 | 75 | 1006.9 |
| 20260505091809 | 10 | 323 | 12.9 | 17.7 | 0.00 | 0.00 | 0.00 | 76 | 1006.8 |
| 20260505090905 | 10 | 331 | 11.3 | 17.7 | 0.00 | 0.00 | 0.00 | 75 | 1006.9 |
| 20260505090006 | 11 | 335 | 8.0 | 17.7 | 0.00 | 0.00 | 0.00 | 75 | 1007.1 |
| 20260505085621 | 11 | 340 | 8.0 | 11.3 | 0.00 | 0.00 | 0.00 | 75 | 1007.0 |
| 20260505084505 | 10 | 325 | 9.7 | 14.5 | 0.00 | 0.00 | 0.00 | 76 | 1007.1 |
| 20260505083607 | 11 | 334 | 8.0 | 9.7 | 0.00 | 0.00 | 0.00 | 77 | 1007.0 |
| 20260505082705 | 10 | 332 | 9.7 | 12.9 | 0.00 | 0.00 | 0.00 | 77 | 1006.9 |
| 20260505081808 | 10 | 325 | 9.7 | 12.9 | 0.00 | 0.00 | 0.00 | 79 | 1006.9 |
| 20260505080905 | 10 | 336 | 11.3 | 17.7 | 0.00 | 0.00 | 0.00 | 79 | 1006.8 |
| 20260505080007 | 10 | 329 | 8.0 | 17.7 | 0.00 | 0.00 | 0.00 | 81 | 1006.7 |
| 20260505075405 | 10 | 326 | 9.7 | 12.9 | 0.00 | 0.00 | 0.00 | 81 | 1006.6 |
| 20260505074509 | 10 | 326 | 8.0 | 12.9 | 0.00 | 0.00 | 0.00 | 81 | 1006.5 |
| 20260505073605 | 10 | 335 | 11.3 | 17.7 | 0.00 | 0.00 | 0.00 | 81 | 1006.7 |
| 20260505072705 | 10 | 333 | 11.3 | 17.7 | 0.00 | 0.00 | 0.00 | 81 | 1006.7 |
| 20260505071806 | 10 | 329 | 9.7 | 17.7 | 0.00 | 0.00 | 0.00 | 81 | 1006.6 |
| 20260505070906 | 10 | 328 | 8.0 | 9.7 | 0.00 | 0.00 | 0.00 | 81 | 1006.6 |
| 20260505070009 | 10 | 326 | 8.0 | 12.9 | 0.00 | 0.00 | 0.00 | 81 | 1006.5 |
| 20260505065405 | 10 | 310 | 6.4 | 11.3 | 0.00 | 0.00 | 0.00 | 80 | 1006.7 |
| 20260505064508 | 10 | 326 | 4.8 | 9.7 | 0.00 | 0.00 | 0.00 | 80 | 1006.6 |
| 20260505063606 | 9 | 327 | 4.8 | 9.7 | 0.00 | 0.00 | 0.00 | 80 | 1006.8 |
| 20260505062707 | 9 | 309 | 4.8 | 6.4 | 0.00 | 0.00 | 0.00 | 80 | 1006.8 |
| 20260505062017 | 9 | 307 | 4.8 | 6.4 | 0.00 | 0.00 | 0.00 | 79 | 1006.8 |
| 20260505060907 | 9 | 300 | 4.8 | 9.7 | 0.00 | 0.00 | 0.00 | 79 | 1006.6 |
| 20260505060007 | 8 | 300 | 3.2 | 6.4 | 0.00 | 0.00 | 0.00 | 80 | 1006.8 |
| 20260505055405 | 8 | 295 | 3.2 | 6.4 | 0.00 | 0.00 | 0.00 | 80 | 1006.7 |
| 20260505054505 | 8 | 280 | 3.2 | 3.2 | 0.00 | 0.00 | 0.00 | 80 | 1006.7 |
| 20260505053607 | 8 | 278 | 3.2 | 6.4 | 0.00 | 0.00 | 0.00 | 80 | 1006.7 |
| 20260505052707 | 8 | 307 | 4.8 | 6.4 | 0.00 | 0.00 | 0.00 | 80 | 1006.7 |
| 20260505051806 | 7 | 295 | 4.8 | 6.4 | 0.00 | 0.00 | 0.00 | 82 | 1006.6 |
| 20260505050908 | 7 | 284 | 4.8 | 6.4 | 0.00 | 0.00 | 0.00 | 82 | 1006.6 |
| 20260505041120 | 7 | 293 | 3.2 | 6.4 | 0.00 | 0.00 | 0.00 | 81 | 1006.3 |
| 20260505040007 | 7 | 302 | 6.4 | 12.9 | 0.00 | 0.00 | 0.00 | 81 | 1006.5 |
| 20260505035407 | 7 | 288 | 4.8 | 6.4 | 0.00 | 0.00 | 0.00 | 81 | 1006.4 |
| 20260505034716 | 7 | 283 | 6.4 | 9.7 | 0.00 | 0.00 | 0.00 | 81 | 1006.5 |
| 20260505033607 | 7 | 285 | 6.4 | 6.4 | 0.00 | 0.00 | 0.00 | 81 | 1006.3 |
| 20260505032704 | 7 | 296 | 6.4 | 6.4 | 0.00 | 0.00 | 0.00 | 82 | 1006.2 |
| 20260505031805 | 7 | 295 | 3.2 | 6.4 | 0.00 | 0.00 | 0.00 | 83 | 1006.2 |
| 20260505030908 | 7 | 297 | 3.2 | 3.2 | 0.00 | 0.00 | 0.00 | 83 | 1006.3 |
| 20260505030007 | 7 | 288 | 3.2 | 3.2 | 0.00 | 0.00 | 0.00 | 84 | 1006.4 |
| 20260505025620 | 7 | 287 | 3.2 | 6.4 | 0.00 | 0.00 | 0.00 | 84 | 1006.4 |
| 20260505024508 | 7 | 288 | 3.2 | 3.2 | 0.00 | 0.00 | 0.00 | 84 | 1006.4 |
| 20260505023607 | 7 | 291 | 3.2 | 6.4 | 0.00 | 0.00 | 0.00 | 84 | 1006.5 |
| 20260505022707 | 7 | 306 | 1.6 | 3.2 | 0.00 | 0.00 | 0.00 | 83 | 1006.5 |
| 20260505022019 | 7 | 312 | 3.2 | 3.2 | 0.00 | 0.00 | 0.00 | 83 | 1006.5 |
| 20260505020907 | 7 | 285 | 1.6 | 3.2 | 0.00 | 0.00 | 0.00 | 82 | 1006.6 |
| 20260505020007 | 7 | 294 | 3.2 | 3.2 | 0.00 | 0.00 | 0.00 | 81 | 1006.8 |
| 20260505015408 | 7 | 283 | 3.2 | 6.4 | 0.00 | 0.00 | 0.00 | 81 | 1006.7 |
| 20260505014508 | 7 | 274 | 3.2 | 6.4 | 0.00 | 0.00 | 0.00 | 80 | 1006.8 |
| 20260505013606 | 7 | 263 | 3.2 | 6.4 | 0.00 | 0.00 | 0.00 | 79 | 1006.9 |
| 20260505012708 | 7 | 261 | 3.2 | 3.2 | 0.00 | 0.00 | 0.00 | 78 | 1006.9 |
| 20260505011808 | 8 | 266 | 3.2 | 6.4 | 0.00 | 0.00 | 0.00 | 76 | 1007.0 |
| 20260505010907 | 8 | 267 | 4.8 | 6.4 | 0.00 | 0.00 | 0.00 | 76 | 1006.9 |
| 20260505010009 | 8 | 277 | 4.8 | 6.4 | 0.00 | 0.00 | 0.00 | 75 | 1006.9 |
| 20260505005407 | 8 | 279 | 4.8 | 6.4 | 0.00 | 0.00 | 0.00 | 75 | 1007.0 |
| 20260505004507 | 8 | 288 | 6.4 | 11.3 | 0.00 | 0.00 | 0.00 | 74 | 1007.0 |
| 20260505003606 | 9 | 305 | 8.0 | 11.3 | 0.00 | 0.00 | 0.00 | 74 | 1007.0 |
| 20260505002706 | 9 | 302 | 9.7 | 12.9 | 0.00 | 0.00 | 0.00 | 72 | 1007.0 |
| 20260505001805 | 9 | 311 | 8.0 | 11.3 | 0.00 | 0.00 | 0.00 | 71 | 1007.2 |
| 20260505000907 | 10 | 302 | 9.7 | 11.3 | 0.00 | 0.00 | 0.00 | 70 | 1007.2 |
| 20260505000220 | 10 | 302 | 9.7 | 9.7 | 0.00 | 0.00 | 0.00 | 70 | 1007.1 |
| 20260504235406 | 10 | 292 | 8.0 | 9.7 | 0.00 | 0.00 | 0.00 | 71 | 1007.3 |
| 20260504234508 | 10 | 287 | 6.4 | 9.7 | 0.00 | 0.00 | 0.00 | 71 | 1007.3 |
| 20260504233607 | 10 | 305 | 6.4 | 9.7 | 0.00 | 0.00 | 0.00 | 71 | 1007.3 |
| 20260504232708 | 10 | 296 | 6.4 | 11.3 | 0.00 | 0.00 | 0.00 | 72 | 1007.2 |
| 20260504231806 | 10 | 291 | 4.8 | 9.7 | 0.00 | 0.00 | 0.00 | 74 | 1007.5 |
| 20260504230906 | 10 | 283 | 4.8 | 9.7 | 0.00 | 0.00 | 0.00 | 75 | 1007.4 |
| 20260504230012 | 10 | 275 | 6.4 | 9.7 | 0.00 | 0.00 | 0.00 | 75 | 1007.4 |
| 20260504225406 | 9 | 291 | 4.8 | 6.4 | 0.00 | 0.00 | 0.00 | 76 | 1007.5 |
| 20260504224507 | 9 | 289 | 3.2 | 6.4 | 0.00 | 0.00 | 0.00 | 77 | 1007.3 |
| 20260504223607 | 9 | 292 | 1.6 | 3.2 | 0.00 | 0.00 | 0.00 | 79 | 1007.3 |
| 20260504222708 | 9 | 288 | 3.2 | 3.2 | 0.00 | 0.00 | 0.00 | 80 | 1007.6 |
| 20260504222016 | 9 | 268 | 4.8 | 6.4 | 0.00 | 0.00 | 0.00 | 80 | 1007.3 |
| 20260504220904 | 9 | 250 | 6.4 | 9.7 | 0.00 | 0.00 | 0.00 | 81 | 1007.6 |
| 20260504220012 | 9 | 223 | 4.8 | 9.7 | 0.00 | 0.00 | 0.00 | 80 | 1007.7 |
| 20260504215407 | 8 | 254 | 3.2 | 6.4 | 0.00 | 0.00 | 0.00 | 81 | 1007.6 |
| 20260504214720 | 8 | 256 | 3.2 | 6.4 | 0.00 | 0.00 | 0.00 | 81 | 1007.7 |
| 20260504213607 | 8 | 263 | 4.8 | 6.4 | 0.00 | 0.00 | 0.00 | 82 | 1007.7 |
| 20260504212706 | 8 | 285 | 4.8 | 6.4 | 0.00 | 0.00 | 0.00 | 83 | 1007.8 |
| 20260504211806 | 8 | 281 | 4.8 | 6.4 | 0.00 | 0.00 | 0.00 | 83 | 1007.8 |
| 20260504211119 | 8 | 291 | 4.8 | 6.4 | 0.00 | 0.00 | 0.00 | 83 | 1007.9 |
| 20260504210011 | 9 | 281 | 6.4 | 9.7 | 0.00 | 0.00 | 0.00 | 83 | 1007.6 |
| 20260504205618 | 9 | 282 | 6.4 | 9.7 | 0.00 | 0.00 | 0.00 | 83 | 1007.8 |
| 20260504204507 | 9 | 280 | 3.2 | 6.4 | 0.00 | 0.00 | 0.00 | 82 | 1007.8 |
| 20260504203605 | 9 | 266 | 3.2 | 6.4 | 0.00 | 0.00 | 0.00 | 81 | 1007.9 |
| 20260504202921 | 10 | 283 | 3.2 | 6.4 | 0.00 | 0.00 | 0.00 | 80 | 1007.8 |
| 20260504202018 | 10 | 320 | 6.4 | 9.7 | 0.00 | 0.00 | 0.00 | 79 | 1007.7 |
| 20260504200905 | 10 | 306 | 4.8 | 9.7 | 0.00 | 0.00 | 0.00 | 78 | 1007.7 |
| 20260504200013 | 10 | 306 | 6.4 | 9.7 | 0.00 | 0.00 | 0.00 | 77 | 1007.8 |
| 20260504195410 | 10 | 322 | 6.4 | 11.3 | 0.00 | 0.00 | 0.00 | 77 | 1007.7 |
| 20260504194507 | 10 | 320 | 6.4 | 9.7 | 0.00 | 0.00 | 0.00 | 77 | 1007.5 |
| 20260504193606 | 10 | 323 | 8.0 | 11.3 | 0.00 | 0.00 | 0.00 | 77 | 1007.2 |
| 20260504192705 | 10 | 312 | 11.3 | 12.9 | 0.00 | 0.00 | 0.00 | 77 | 1007.3 |
| 20260504191805 | 11 | 325 | 11.3 | 17.7 | 0.00 | 0.00 | 0.00 | 75 | 1007.4 |
| 20260504190907 | 11 | 326 | 9.7 | 17.7 | 0.00 | 0.00 | 0.00 | 75 | 1007.3 |
| 20260504190010 | 11 | 325 | 11.3 | 17.7 | 0.00 | 0.00 | 0.00 | 75 | 1007.3 |
| 20260504185407 | 11 | 324 | 9.7 | 14.5 | 0.00 | 0.00 | 0.00 | 76 | 1007.4 |
| 20260504184509 | 11 | 331 | 9.7 | 14.5 | 0.00 | 0.00 | 0.00 | 77 | 1007.3 |